Powrót do katalogu

STARLINK-33581

AktywnyŁącznośćVLEO
NORAD 62784·PAYLOAD·🇺🇸 United States

Wystrzelony Jan 21, 2025 z Vandenberg Space Force Base

Loading…

Następne Przeloty (najbliższe 24 godziny)

TLE

ŚwieżeSource: CelesTrak SupGP

Epoka: Sep 15, 2026, 02:46 UTC

1 62784C 25015AC  26258.11576389 -.00015369  00000+0 -49428-3 0  2586
2 62784  53.1587 161.2894 0001362  87.2259 194.9607 15.31705333    12

Śledź STARLINK-33581 w czasie rzeczywistym z AllMySat

Download on the App Store